RH
33 37 44 54 59 64 70 71 71 66 66 80 83 85 92 88 84 80 73 78 81 75 67 58 51 41 35 28 30 33 34 40 41 54 46 25 27 27 26 23 17 17 18 22 23 24 27 35 44 49 50 48 48 47 46 45 45 46 47 49 49 48 48 51 51 51 52 55 56 57 60 62 65 65 64 61 55 51 47 44 42 41 41 42 42 42 41 40 40 39 38 35 34 36 37 39 41
31 41 51 59 62 65 71 69 70 70 72 80 79 78 90 95 91 85 77 79 82 74 67 58 50 43 38 28 24 29 31 32 33 43 35 23 26 25 26 22 18 17 17 21 22 24 25 29 35 42 47 49 48 48 47 46 46 47 46 46 46 46 47 50 52 51 53 56 56 58 62 64 64 62 59 53 47 45 42 40 39 39 39 40 40 40 38 36 36 35 33 31 31 30 32 33 34
34 46 54 60 64 66 70 69 71 72 75 82 81 74 84 99 97 91 81 81 83 74 64 55 52 48 45 35 25 29 31 25 24 28 25 25 25 24 26 22 19 17 17 19 20 22 23 25 28 32 38 43 45 45 44 44 45 45 43 42 42 43 44 48 50 49 51 54 56 60 62 62 61 59 56 51 47 43 42 42 40 39 38 39 40 41 41 40 39 36 34 35 34 30 30 29 31
39 51 55 59 63 64 67 68 73 74 74 80 78 71 83 97 98 95 84 84 87 74 61 55 56 52 50 45 29 28 31 25 23 24 25 27 24 24 26 23 20 17 17 17 18 19 19 21 22 26 29 33 39 40 38 37 38 38 38 38 38 40 43 48 48 47 50 55 58 61 62 61 61 59 55 51 47 44 48 49 44 42 42 45 47 49 50 48 44 41 39 39 38 36 36 34 34
43 51 52 55 57 58 61 66 71 74 77 79 72 66 80 92 95 98 87 88 89 73 63 58 57 56 54 49 33 28 31 27 22 23 25 26 24 24 25 24 21 17 17 16 17 18 18 19 18 21 22 25 30 34 34 32 30 30 31 32 34 36 42 47 47 49 53 56 59 60 62 61 59 57 54 49 45 48 55 54 50 49 51 52 54 58 57 54 50 46 44 44 46 50 51 44 41
46 49 49 49 51 53 54 59 63 68 73 74 70 67 78 87 95 98 88 90 87 74 67 60 57 57 53 49 39 28 31 32 24 24 25 25 24 23 25 24 22 18 17 16 16 17 18 19 18 19 19 20 22 24 27 27 25 24 25 27 30 33 39 45 49 52 54 57 59 61 61 57 55 54 52 48 45 50 54 52 54 59 59 56 57 60 58 57 55 51 48 48 53 62 67 56 44
43 43 43 42 44 47 47 52 56 61 66 69 71 72 81 87 95 96 89 92 87 77 70 61 57 55 47 43 39 27 31 35 26 25 25 25 24 22 24 24 23 20 17 16 16 17 18 18 18 18 18 19 19 20 20 21 22 22 24 26 29 34 40 46 50 52 54 58 59 58 55 51 51 52 54 50 45 45 47 49 55 61 61 59 59 57 55 52 51 56 56 54 58 65 73 67 54
33 34 37 37 38 40 44 49 50 53 58 68 74 76 84 89 94 95 92 95 92 82 73 64 57 55 49 39 34 28 26 28 26 27 26 26 25 23 23 24 25 22 19 18 17 17 17 18 18 18 18 19 19 20 19 20 21 22 24 27 31 36 41 45 47 51 56 58 56 52 47 47 50 52 53 50 46 43 45 50 55 58 59 60 58 52 48 45 49 65 71 66 63 65 72 74 71
26 30 33 34 35 37 42 45 47 49 50 62 73 76 84 92 97 94 95 99 94 84 75 69 60 57 56 42 31 26 20 19 23 24 24 26 26 24 22 23 26 25 22 19 18 18 17 18 18 18 17 18 18 18 19 20 21 22 23 26 31 35 39 41 44 50 54 54 50 45 42 45 49 50 51 50 50 49 50 54 55 56 57 56 53 48 43 43 48 62 75 74 68 68 71 75 79
27 27 30 38 41 39 41 43 46 48 47 53 62 73 85 96 99 96 98 100 96 86 77 74 65 58 56 44 28 21 18 15 18 21 22 23 24 25 22 21 24 26 24 22 20 18 18 17 16 17 16 16 17 19 19 20 21 23 24 25 28 31 34 35 40 45 48 48 43 41 41 44 46 45 45 47 50 52 54 54 56 56 55 50 47 43 38 42 49 57 67 72 72 72 70 73 81
32 27 30 46 47 40 40 41 46 49 51 53 58 71 86 97 97 96 99 99 98 87 76 73 63 56 52 40 23 17 17 13 15 18 19 21 23 25 23 21 22 25 25 24 23 21 20 18 16 16 15 14 16 19 21 22 22 22 23 24 26 28 33 38 42 44 46 45 38 38 40 38 38 35 33 39 47 52 55 54 53 50 45 41 39 39 40 45 55 65 71 74 79 80 77 78 80
36 30 34 46 42 38 41 41 46 50 55 61 65 75 91 97 93 95 99 100 97 82 74 72 61 56 49 32 19 14 13 12 14 15 16 19 22 23 24 22 21 24 24 24 26 25 23 20 18 16 15 13 15 18 18 21 22 22 21 22 24 26 33 42 44 42 43 40 32 33 33 30 29 25 24 34 44 46 46 44 42 40 40 43 46 52 60 65 73 81 85 88 90 91 91 90 82
37 32 38 47 40 40 44 42 45 48 56 68 74 81 92 93 91 97 99 99 92 77 74 71 61 56 44 25 14 11 11 12 13 13 15 17 20 22 23 22 21 23 24 23 24 25 24 22 20 19 17 13 13 16 15 17 19 22 23 23 24 25 29 35 39 39 38 33 26 26 27 27 27 22 23 30 36 38 39 41 45 51 56 59 60 63 70 79 87 90 91 90 86 87 93 94 91
38 35 38 44 43 43 46 46 46 48 53 66 80 90 93 89 94 100 99 97 87 76 75 72 62 53 39 23 17 15 12 11 12 13 13 15 17 19 21 19 19 21 22 23 21 21 22 22 21 21 20 15 12 13 13 14 14 17 20 22 24 24 26 31 36 35 29 26 24 26 26 28 28 28 32 36 40 44 49 56 62 65 67 67 66 68 75 85 89 88 88 86 84 86 89 89 90
37 40 40 40 44 44 45 49 49 53 57 66 80 88 89 87 96 100 95 93 84 78 78 75 67 53 40 30 25 22 14 10 11 11 13 14 14 15 16 14 15 17 19 21 19 17 18 19 20 22 22 18 14 12 11 12 12 13 15 17 20 22 25 29 33 29 23 24 27 28 29 33 37 40 44 47 50 51 57 64 68 68 69 68 67 73 81 87 91 91 88 86 88 89 89 90 89
38 44 46 44 47 47 47 51 54 60 63 68 76 84 90 89 95 97 93 89 83 82 83 81 74 60 48 38 29 22 13 11 11 11 13 15 14 13 12 12 12 13 14 16 17 15 15 17 18 21 21 18 15 13 11 11 11 11 12 13 16 19 22 25 28 26 24 26 30 33 38 43 46 48 50 53 56 57 60 61 64 66 67 65 65 72 79 82 87 89 87 86 89 91 91 92 91
41 45 50 50 49 52 53 57 59 61 65 66 72 88 97 93 92 92 90 90 87 87 89 88 76 62 53 44 35 24 15 12 11 11 14 16 16 14 13 13 12 12 13 14 15 15 15 16 17 18 20 19 16 14 11 13 14 11 11 12 13 17 20 22 23 25 31 34 37 43 47 49 49 50 52 53 55 56 57 57 57 59 60 59 58 64 72 77 79 80 81 82 87 91 93 93 92
43 43 48 50 53 59 60 64 63 60 67 73 77 90 97 93 90 89 90 91 92 93 95 90 77 64 53 45 40 29 17 11 11 13 15 17 18 17 16 15 15 15 14 15 15 16 16 16 16 17 18 18 17 15 12 14 17 12 12 13 15 17 18 20 22 29 41 45 43 47 49 49 49 49 50 50 50 51 52 52 51 51 51 50 49 53 64 76 78 77 79 81 84 88 93 93 90
45 48 50 49 55 61 61 68 68 64 74 83 88 95 98 95 92 92 91 91 93 96 97 90 83 73 56 45 41 31 20 12 11 13 15 17 18 19 19 18 18 17 16 16 17 17 17 16 16 16 17 17 16 15 12 12 14 12 14 15 16 18 19 22 29 37 45 48 47 46 46 48 48 46 47 46 46 46 47 47 45 44 44 43 43 45 57 74 81 79 79 81 85 88 89 89 81
44 50 51 48 54 57 59 67 69 69 74 83 91 93 93 92 91 93 93 92 91 93 97 95 90 81 61 46 41 33 21 14 11 12 14 16 18 20 21 21 20 20 18 16 17 18 19 17 16 16 16 17 15 14 12 11 12 14 17 19 21 24 28 33 39 43 45 46 45 44 45 46 46 45 45 43 42 42 42 42 40 40 41 44 49 52 59 71 80 79 77 79 85 87 84 82 73
43 46 49 48 50 52 55 61 64 67 69 73 81 85 89 91 91 95 94 89 86 87 91 95 95 92 75 51 40 36 25 17 13 11 12 12 15 17 19 20 19 19 17 15 15 17 19 17 14 15 16 16 14 12 12 14 16 20 23 27 30 33 38 42 43 44 44 44 44 44 44 44 43 42 41 39 39 38 38 41 43 47 51 57 65 71 72 73 77 77 75 77 83 84 80 77 72
45 44 47 47 46 47 51 53 56 59 61 63 67 72 79 83 86 91 90 84 84 89 91 94 96 97 89 61 41 37 30 23 17 11 11 11 12 14 15 17 16 17 16 14 14 15 17 16 15 16 16 15 14 14 16 20 23 27 30 33 37 39 42 44 45 45 44 44 43 42 41 40 40 38 37 37 36 37 41 46 52 58 63 69 75 79 80 77 76 74 73 77 81 82 80 77 77
46 47 48 47 44 45 47 49 49 50 52 54 56 60 63 69 74 78 82 82 85 90 90 93 97 99 95 70 45 39 35 29 25 17 13 12 12 12 14 16 16 16 16 15 15 16 17 18 20 21 20 19 19 21 24 27 30 33 35 37 39 41 43 44 45 45 44 42 40 39 38 36 35 35 35 36 37 40 44 50 56 63 69 75 80 81 80 77 76 75 75 78 81 81 79 78 82
47 49 48 48 46 44 45 46 46 46 47 47 48 52 53 58 65 70 75 77 81 87 86 87 92 98 99 82 55 41 38 36 34 29 21 16 13 13 15 16 16 16 17 18 19 22 25 27 29 30 31 30 29 31 32 33 35 37 39 41 42 42 42 42 43 42 41 39 37 36 35 34 33 34 36 38 41 43 46 51 58 69 77 81 83 83 81 80 79 79 80 80 80 80 79 79 85
47 49 49 48 47 44 44 43 44 44 45 46 47 49 49 52 60 72 78 76 76 83 86 82 83 92 100 96 73 47 40 41 40 38 32 25 19 16 17 18 18 18 20 23 25 28 33 37 38 41 43 42 40 38 37 37 39 40 42 44 44 43 42 41 40 39 37 36 35 34 34 34 35 36 39 42 44 46 49 54 63 74 80 82 84 85 82 82 83 84 85 83 80 81 81 79 82
48 50 49 48 47 45 44 43 43 43 43 47 50 51 51 51 56 67 77 78 78 81 86 85 85 92 97 98 84 57 45 45 41 38 36 34 30 25 22 21 20 20 23 28 31 33 35 39 42 46 48 47 46 42 41 41 41 42 43 44 44 42 40 38 36 35 35 35 35 35 36 36 37 39 42 45 48 51 54 58 65 72 77 78 81 85 83 81 82 85 89 87 81 79 82 81 80
49 50 49 47 46 45 45 44 43 43 43 45 49 53 53 54 57 59 64 69 72 77 85 91 90 93 97 96 84 62 50 47 42 39 37 36 34 32 29 27 26 25 25 29 33 34 35 36 39 42 44 45 45 44 43 42 42 41 41 40 40 39 38 37 37 37 37 37 37 38 39 39 40 42 45 50 55 62 66 68 70 73 76 76 77 82 83 80 80 84 92 93 86 81 83 86 86
49 49 49 48 46 44 45 46 45 44 43 44 47 50 51 52 56 56 57 58 59 61 69 84 90 90 90 86 77 62 50 45 42 40 38 36 36 35 33 32 32 32 32 32 32 34 35 36 38 40 42 43 44 44 43 42 42 40 39 38 38 39 39 40 42 43 44 44 45 45 46 46 47 50 52 57 64 70 74 75 76 77 79 81 79 79 77 77 81 85 93 96 94 90 90 92 89
49 49 51 48 46 45 45 46 45 44 43 44 47 48 48 48 50 52 56 58 57 54 51 60 75 84 84 77 68 58 50 46 42 40 38 36 38 38 35 34 35 36 36 36 36 37 38 39 40 40 41 43 44 43 42 41 41 40 40 43 44 45 47 49 52 54 56 57 59 60 60 61 60 62 64 66 70 73 75 76 76 78 83 87 84 81 77 74 77 82 86 91 94 95 97 96 88
49 50 52 49 49 46 46 45 44 44 43 44 48 49 48 47 48 48 50 55 59 60 57 53 57 67 79 82 74 63 55 48 44 44 44 45 49 51 45 39 39 39 38 38 39 40 40 40 39 39 40 41 42 41 40 39 40 41 44 49 52 54 58 62 65 66 68 69 71 71 72 72 73 74 75 75 76 77 79 79 79 81 86 90 88 85 81 77 76 77 80 85 88 91 96 95 85
48 51 54 52 52 50 48 46 44 43 43 45 49 50 48 48 50 50 48 48 50 53 57 58 56 56 65 75 78 76 69 61 59 62 64 65 68 70 62 49 45 46 45 44 42 40 39 38 36 36 38 39 40 40 40 41 42 44 49 55 60 63 64 67 70 73 74 74 73 72 73 76 78 81 82 82 83 85 86 84 82 85 91 94 91 85 81 79 80 79 80 83 85 87 91 89 80
47 52 57 56 55 52 49 47 45 44 44 47 48 49 49 48 51 52 51 50 47 47 48 51 53 53 55 58 63 70 73 75 81 84 81 79 79 79 74 62 52 52 55 56 52 46 43 40 38 38 38 40 42 44 47 49 51 56 61 67 72 75 76 77 80 83 84 84 83 81 80 81 83 85 86 86 86 87 87 85 85 89 95 96 89 83 80 80 83 83 83 85 87 89 91 88 80
51 52 56 57 55 54 52 48 47 46 47 49 49 50 52 51 50 48 50 52 51 49 48 48 49 50 50 50 50 53 57 63 71 74 72 72 75 77 78 72 63 59 63 68 68 64 59 53 49 47 46 46 49 53 56 59 62 67 72 79 87 92 93 94 94 95 95 96 95 93 89 86 87 84 80 76 73 74 75 77 82 88 94 93 85 80 79 81 84 86 88 91 93 95 94 88 78
50 53 53 56 57 56 55 50 48 49 51 53 52 53 52 52 51 47 46 48 50 50 49 50 49 48 47 46 47 48 49 51 54 56 55 56 61 67 72 74 73 69 69 75 80 81 78 74 70 69 68 68 69 72 76 80 82 82 81 85 93 99 99 97 94 88 83 83 81 76 73 71 69 62 55 51 49 52 56 61 70 79 84 83 80 80 81 81 81 87 95 98 99 99 96 85 71
46 53 50 55 60 58 57 55 52 51 52 53 53 54 52 50 50 48 45 44 46 48 47 47 45 43 42 43 46 48 49 50 50 52 53 54 55 59 61 64 73 77 76 78 83 88 89 90 90 90 89 87 87 88 90 94 97 97 96 95 97 98 92 83 73 64 58 54 50 46 44 44 42 39 38 40 44 50 56 61 66 73 78 78 77 77 78 77 76 87 98 99 98 99 94 79 63
45 49 48 52 57 58 58 58 58 55 53 52 52 52 48 47 48 48 46 44 44 44 43 42 39 36 36 38 42 46 48 49 47 47 51 57 61 63 61 57 63 74 78 79 82 88 91 93 96 96 96 97 97 97 96 96 98 100 98 94 88 79 68 58 49 44 41 37 35 35 34 34 34 36 41 48 57 65 73 77 80 84 88 87 85 80 75 74 79 90 99 99 96 96 91 72 55
41 44 45 48 54 55 55 57 59 58 57 55 53 52 47 45 47 47 47 44 43 42 40 37 33 32 33 35 39 42 45 45 43 43 46 55 61 64 67 64 60 62 66 70 73 77 82 89 95 93 93 98 99 98 97 94 93 88 81 73 64 55 47 40 37 37 38 37 38 40 40 40 39 41 52 62 69 76 85 92 94 97 96 90 90 89 82 82 89 95 99 100 96 94 84 60 46
41 40 41 49 54 50 50 54 57 58 58 58 56 53 48 45 45 47 47 43 39 38 38 35 30 29 32 37 42 44 45 45 47 52 52 54 57 59 64 68 66 65 63 65 67 68 69 77 84 86 92 97 91 81 76 73 68 62 56 50 45 41 37 37 42 46 49 48 51 57 58 54 50 51 61 71 75 79 88 98 99 99 99 94 94 97 95 94 97 98 99 100 97 94 75 44 36
43 39 46 56 54 48 47 48 54 57 56 58 59 54 48 45 45 46 48 45 38 36 36 32 27 27 33 40 43 44 46 52 61 66 66 63 62 59 59 63 67 71 73 74 73 70 67 64 62 67 81 83 69 55 48 47 45 45 45 45 44 44 47 54 61 66 69 69 72 76 73 68 67 67 67 72 77 82 88 97 100 99 100 99 98 99 98 98 98 96 98 98 95 92 68 32 25
49 44 54 58 49 47 47 45 53 57 56 59 58 53 48 43 44 46 49 48 40 36 37 32 26 26 33 40 43 43 44 54 64 66 65 64 65 69 73 76 77 78 83 83 82 80 77 71 61 58 62 63 59 56 55 54 54 56 58 60 62 64 67 72 75 77 78 80 83 83 80 79 83 82 75 74 80 88 94 98 100 100 100 99 99 97 94 95 97 96 99 98 96 93 65 25 14
55 47 51 52 45 43 41 44 51 52 56 58 54 59 58 47 47 47 47 50 43 37 37 34 28 24 30 38 41 43 43 50 58 58 60 62 65 74 82 86 88 88 89 85 82 83 82 80 76 74 74 75 76 76 76 76 76 76 76 77 77 76 76 76 78 81 80 81 83 83 84 85 89 92 87 83 87 94 98 99 98 99 100 98 96 93 90 89 90 93 97 95 92 81 47 14 8
59 50 47 50 50 44 36 41 54 56 56 52 53 74 79 56 49 51 47 51 46 38 37 34 29 24 27 37 40 42 43 46 51 52 56 62 65 71 77 84 92 93 88 82 80 81 81 83 85 85 85 82 80 78 78 78 76 75 74 73 73 72 72 70 71 73 75 82 86 86 87 89 94 99 97 95 97 98 98 99 99 98 99 98 95 91 88 82 79 84 87 82 75 54 23 9 10
64 51 45 48 50 48 37 36 57 66 57 49 48 69 83 63 49 50 48 50 49 42 37 32 29 25 27 38 41 41 41 40 39 37 39 47 53 60 67 74 78 76 72 69 70 73 76 79 79 77 75 72 69 69 68 65 62 60 59 60 61 62 63 65 68 72 77 86 93 94 92 93 96 98 99 100 100 99 99 99 99 97 97 97 90 83 79 73 71 76 74 68 59 37 14 9 10
62 47 43 45 46 47 38 33 52 58 49 52 46 51 78 73 50 48 46 46 49 43 37 31 26 26 30 40 43 40 36 29 24 23 24 29 34 40 45 49 51 50 50 51 54 58 61 63 63 61 61 62 61 58 55 53 50 50 50 50 51 54 63 72 77 81 87 92 94 91 93 97 99 99 99 100 100 100 100 97 95 94 90 83 75 73 72 65 63 68 63 54 45 27 12 10 8
49 40 41 45 42 38 31 33 43 46 50 60 48 47 79 78 50 47 46 43 47 41 35 31 25 26 33 41 45 41 32 21 14 13 15 19 22 27 33 38 42 44 46 47 49 51 52 53 52 51 53 55 52 48 43 38 35 33 33 32 32 39 58 78 88 88 83 82 83 84 90 95 97 99 93 93 98 98 94 89 84 79 69 62 63 66 65 58 56 60 57 46 35 22 14 12 10
42 39 43 43 37 27 24 30 34 41 56 63 51 49 76 79 54 49 48 41 44 41 35 32 25 25 35 42 45 42 32 21 14 11 11 12 14 19 25 30 33 35 36 38 41 43 42 40 40 42 47 48 44 39 33 27 22 20 18 17 16 19 30 48 67 69 55 51 60 67 72 80 99 102 80 73 82 80 78 73 62 54 49 48 54 54 50 49 48 49 50 45 39 32 28 24 19
42 41 44 38 30 21 19 24 31 46 57 58 54 48 63 78 60 49 48 41 42 42 37 35 28 25 35 42 44 43 37 28 21 16 13 12 11 11 14 18 19 19 19 19 21 23 23 23 24 28 34 36 34 32 28 23 20 17 16 15 13 12 12 17 28 31 23 22 31 35 35 54 90 92 58 48 58 55 55 48 33 29 29 27 30 29 30 33 32 30 31 30 28 24 22 19 15
39 41 49 43 34 24 20 25 33 48 53 53 56 48 58 78 64 50 47 40 41 42 37 37 31 26 34 41 43 43 42 38 32 26 21 18 16 13 11 11 10 10 10 10 11 11 12 11 12 14 16 17 18 18 17 15 13 13 12 12 11 11 11 10 11 11 10 10 13 13 11 22 43 42 26 28 34 32 32 24 13 13 11 9 10 11 13 16 15 15 15 14 13 13 13 13 13
37 45 53 52 47 37 35 39 41 47 49 50 52 51 62 69 56 51 48 38 42 43 38 37 30 26 31 37 40 41 41 41 38 34 29 25 22 19 16 14 13 11 10 10 9 9 9 10 9 9 9 10 10 10 11 11 11 12 14 17 19 20 21 20 19 18 18 16 14 13 12 10 12 12 12 16 17 17 18 14 12 14 13 15 18 18 20 21 20 21 21 21 23 24 26 28 29
45 53 57 54 49 45 45 46 44 47 47 43 40 48 65 63 49 49 47 39 43 45 39 34 28 25 26 30 35 38 39 39 39 38 36 33 30 26 22 18 15 14 12 11 11 10 10 10 10 10 9 10 10 11 11 13 16 19 24 28 31 34 35 35 33 32 31 30 29 26 24 23 22 21 21 22 23 24 25 25 27 28 29 31 30 30 31 31 31 32 33 34 36 37 39 39 38
43 48 53 51 47 46 47 44 44 49 48 38 33 44 61 61 50 43 40 43 47 46 40 31 26 24 23 24 26 27 30 31 32 34 34 35 36 34 32 29 26 22 19 16 13 12 11 11 10 10 11 12 13 16 19 22 26 30 34 37 38 39 39 39 38 38 38 37 37 37 36 36 35 35 34 34 36 36 36 36 36 34 33 32 29 30 31 33 36 38 40 41 39 37 34 29 26
36 34 43 49 44 36 35 36 36 42 46 42 41 47 47 46 46 38 37 46 49 47 39 30 27 27 25 25 24 24 26 27 28 28 29 29 30 30 31 31 31 32 32 31 27 22 19 18 17 17 19 22 24 27 31 33 36 37 37 37 36 36 35 35 36 37 38 39 39 40 40 40 40 40 40 38 37 36 34 33 31 30 30 30 32 35 37 40 42 41 38 33 27 22 17 13 10
31 33 45 46 34 25 32 37 31 32 41 43 46 52 48 45 46 39 37 44 49 49 40 31 29 30 33 33 32 32 33 33 34 32 31 31 29 29 29 28 28 28 30 34 36 37 36 34 33 32 32 34 36 37 37 37 36 34 32 29 27 26 26 27 28 30 33 35 37 39 39 39 39 38 36 34 33 32 32 32 33 35 37 39 42 42 41 39 34 29 22 16 12 10 8 7 6
31 41 41 32 26 24 31 38 38 38 41 43 46 51 57 60 52 40 39 42 44 48 44 37 31 29 33 35 35 37 37 36 37 35 34 33 30 27 27 30 31 30 29 28 29 33 39 42 41 40 40 39 38 37 34 31 28 25 23 21 20 20 20 20 21 23 25 27 30 32 33 33 32 32 32 33 34 35 37 39 39 40 39 37 34 31 28 23 17 13 9 7 7 6 6 6 5
34 40 29 25 34 39 37 35 40 43 41 44 49 48 56 66 58 45 43 42 40 45 47 44 38 32 31 31 33 37 38 37 37 36 35 35 32 26 21 23 26 29 33 34 30 27 28 35 39 39 38 36 33 30 26 23 21 20 20 19 18 18 17 17 17 19 20 22 24 25 27 29 30 33 36 38 40 40 40 40 37 34 29 24 21 17 14 11 8 7 7 7 7 7 7 6 6
22 27 24 26 33 41 44 38 37 42 41 44 50 53 57 60 52 43 41 39 39 41 43 44 44 41 38 37 39 41 41 40 38 36 34 33 32 26 20 21 24 28 35 41 44 38 27 25 30 33 32 29 27 23 21 21 20 19 19 18 18 18 17 16 16 17 18 18 20 20 22 25 30 36 41 42 42 41 38 35 31 26 21 16 13 10 9 8 9 9 9 9 8 7 7 5 5
18 19 23 27 25 27 34 34 34 38 45 50 51 55 60 51 39 36 36 37 38 39 41 44 43 43 43 43 43 42 40 39 37 35 33 30 27 23 21 25 32 39 44 47 52 53 42 27 22 26 26 24 23 22 21 22 20 19 19 18 18 17 17 17 16 17 18 18 19 20 22 26 32 37 41 41 40 36 31 25 21 17 13 11 10 9 10 11 10 10 9 8 7 6 6 5 5
25 25 30 32 28 28 32 37 38 35 41 52 51 53 58 47 35 34 34 37 40 37 39 44 43 40 40 37 36 35 33 32 32 30 28 26 24 22 24 31 40 47 50 52 57 63 58 39 23 22 24 23 23 23 22 22 20 19 19 18 18 17 16 17 18 19 21 22 23 23 25 28 32 36 37 35 30 23 17 13 12 11 10 11 12 12 12 11 10 9 7 6 6 5 5 5 5
Wind_Speed
2 3 3 3 3 3 3 1 2 2 2 3 5 5 9 12 13 13 12 12 12 11 10 10 10 10 10 11 10 10 10 10 10 10 12 14 13 13 15 15 15 16 15 14 14 14 13 14 14 15 16 16 17 18 19 18 18 18 17 17 16 16 14 14 13 12 12 11 11 10 9 9 8 7 6 5 4 5 4 4 3 2 2 1 0 1 2 3 3 4 5 6 6 7 8 8 7
1 2 4 4 4 3 3 2 2 3 3 3 4 5 7 11 14 14 13 13 13 12 11 10 10 10 9 10 9 10 11 10 9 10 12 14 12 12 15 15 15 15 15 14 13 13 14 14 14 14 14 15 15 16 16 17 17 16 16 15 15 15 14 13 13 12 12 11 11 10 9 8 7 6 5 5 5 5 4 4 4 3 3 2 0 1 2 2 3 4 4 5 6 6 7 7 7
0 2 4 4 3 3 3 2 3 4 4 5 5 6 6 10 15 16 15 15 14 13 13 11 11 10 9 10 9 10 10 10 10 10 11 12 12 11 13 15 15 15 15 14 13 12 13 13 13 13 13 13 13 14 14 14 14 14 14 14 14 14 13 13 12 12 11 10 9 9 8 7 7 6 5 5 5 5 5 5 4 4 3 2 1 0 1 2 3 4 5 5 6 6 6 7 7
1 2 4 4 3 4 3 3 3 3 5 6 6 6 6 11 17 17 17 16 15 14 13 12 12 11 10 9 10 10 10 11 10 10 11 12 12 10 11 14 15 15 14 14 12 11 11 12 12 12 12 12 12 11 12 12 13 13 13 13 13 13 13 13 12 11 11 10 9 8 8 7 6 6 6 5 5 6 5 5 4 3 2 2 1 1 2 3 4 4 5 5 6 6 6 7 6
2 2 4 4 4 4 4 4 2 1 5 6 6 7 6 11 17 18 20 18 17 15 14 13 13 12 11 10 10 10 10 10 10 10 11 11 12 10 10 13 14 14 14 13 12 11 10 10 11 11 11 11 10 10 10 10 11 11 11 11 11 11 11 12 11 11 10 9 8 8 7 6 6 5 5 5 6 6 5 4 3 2 2 1 1 1 2 3 3 4 4 5 5 5 6 7 7
2 2 3 4 5 4 4 4 1 2 4 5 6 7 7 12 15 19 22 20 18 16 14 14 13 12 12 11 11 11 10 9 9 9 10 11 11 11 10 11 12 13 14 14 12 11 10 9 9 9 9 9 9 9 9 9 9 10 10 10 10 10 10 10 10 9 9 8 7 7 6 6 5 5 5 5 6 5 4 3 3 2 1 1 0 1 2 2 3 3 4 4 5 5 6 6 6
2 3 3 5 6 4 4 4 2 2 4 5 6 7 8 11 15 21 23 21 20 16 14 13 13 12 11 11 12 12 12 10 9 9 9 10 10 10 11 10 11 12 13 14 12 11 10 9 8 8 8 8 8 7 8 8 8 9 10 10 11 11 10 10 10 9 8 7 6 6 5 5 4 4 4 4 4 4 3 3 2 2 1 0 1 2 3 3 3 4 4 5 6 5 5 5 5
3 5 5 5 6 5 5 4 3 3 4 4 5 7 10 11 14 21 23 22 21 17 15 13 12 11 11 10 11 13 13 12 11 9 9 9 9 9 10 10 10 11 12 13 12 10 9 8 8 7 7 7 7 7 7 8 8 9 9 10 10 10 10 9 9 8 7 6 6 5 4 4 4 4 4 4 3 3 3 2 2 1 1 1 2 3 4 4 5 5 5 5 6 6 5 6 5
4 5 5 6 7 7 6 5 4 3 5 4 5 7 10 11 15 21 22 24 22 18 16 13 12 11 10 9 9 12 13 13 12 10 9 9 9 8 9 10 10 10 10 12 12 11 9 8 8 7 7 7 6 6 6 7 8 8 9 9 9 9 8 8 7 7 6 5 5 4 4 3 3 3 3 3 3 3 2 1 1 1 1 2 3 4 5 5 6 6 6 6 6 7 6 6 6
5 6 7 7 8 8 7 6 4 5 6 5 6 6 10 11 16 22 22 24 22 19 17 14 12 11 10 9 9 11 13 13 12 11 9 9 9 7 8 9 9 9 9 10 11 11 10 8 8 7 7 7 6 6 5 5 6 7 7 7 7 7 7 7 6 6 5 5 4 4 4 3 3 3 3 3 3 3 2 1 0 1 2 3 4 5 6 6 6 6 7 7 7 8 8 8 7
8 8 9 9 10 9 8 6 5 6 6 6 7 6 8 12 18 23 23 24 22 19 17 15 13 12 11 9 9 12 14 13 12 11 10 9 9 7 7 7 8 8 8 9 9 9 9 8 8 8 7 7 7 6 6 5 5 5 6 7 7 7 7 6 6 5 5 4 4 4 4 4 3 3 3 3 3 2 2 1 0 1 3 4 4 5 6 6 7 7 7 8 8 9 9 9 9
11 11 10 10 11 9 8 6 5 6 6 6 4 4 7 14 20 22 24 24 22 20 17 15 14 12 11 10 11 13 14 14 13 12 10 9 9 8 7 7 7 7 7 7 7 7 7 7 7 7 7 7 8 7 7 6 5 5 6 6 7 7 6 6 6 5 5 5 5 4 4 3 3 2 2 2 2 1 1 0 1 2 3 4 4 5 6 7 8 9 9 9 10 11 10 9 9
12 12 11 9 10 9 8 6 5 5 5 5 2 3 8 19 21 22 25 25 23 20 18 16 14 12 11 10 12 14 15 15 14 13 11 9 9 8 8 7 7 6 7 7 7 6 6 6 5 6 6 6 7 7 7 6 5 5 5 5 6 6 6 7 7 6 5 5 4 4 3 3 2 2 2 2 2 1 0 1 1 2 3 3 4 5 7 8 9 10 11 11 12 12 11 11 9
12 12 10 9 9 9 7 5 5 5 5 5 4 1 13 21 21 24 27 25 22 19 17 16 14 12 11 11 12 13 14 15 15 14 13 10 9 9 8 8 7 7 7 7 7 6 6 5 4 5 5 5 5 6 6 5 4 3 3 4 5 6 6 7 7 7 6 5 4 3 3 2 2 2 2 2 1 1 0 1 1 3 4 4 5 5 8 9 9 11 13 13 13 13 12 12 11
11 11 9 9 8 7 7 6 5 5 6 5 6 5 13 19 21 26 26 22 19 16 16 15 13 11 10 10 10 12 13 14 15 16 14 12 10 10 9 9 8 7 7 8 8 7 6 5 5 5 5 5 5 5 5 5 5 4 3 4 5 6 7 7 7 7 6 5 4 3 3 2 2 2 1 1 0 0 1 2 3 4 5 6 6 7 9 10 10 12 14 15 14 14 13 13 13
11 9 9 10 8 7 6 6 7 7 6 4 6 7 12 18 22 24 21 19 16 14 14 13 13 12 10 8 8 9 12 14 15 16 15 12 11 11 10 10 9 8 8 8 9 9 8 6 6 6 6 6 6 6 6 6 5 5 4 4 5 6 7 7 7 6 5 4 4 3 3 2 1 1 0 0 1 2 3 4 5 6 7 8 8 9 10 11 13 13 14 15 15 15 15 13 13
10 8 10 11 9 9 8 8 10 8 6 5 7 9 12 19 21 20 18 17 15 14 13 14 15 13 12 9 7 7 10 14 15 15 15 14 12 11 11 11 10 9 9 9 9 9 9 8 7 6 6 6 6 6 7 7 6 5 5 5 5 6 6 6 6 5 4 4 4 3 2 1 1 0 1 1 2 3 4 5 7 7 9 10 11 11 11 12 15 15 14 15 15 15 16 13 11
10 9 12 12 10 12 12 12 12 10 10 8 10 13 14 18 18 17 17 17 14 13 13 14 15 13 12 11 8 8 11 14 16 16 16 15 13 12 11 11 10 10 9 9 9 9 9 9 8 7 7 6 6 6 7 7 7 6 5 5 5 5 6 6 5 5 4 4 3 3 2 2 2 2 2 3 3 4 5 6 8 9 10 11 12 13 13 13 15 16 15 15 16 16 17 16 12
11 11 13 13 13 14 14 15 13 13 14 12 13 16 15 15 14 14 15 14 12 10 9 10 13 12 11 12 11 11 12 14 17 17 17 17 15 13 12 11 10 10 9 9 9 9 9 9 8 8 7 6 6 6 6 6 6 6 6 5 5 5 5 5 5 5 5 4 4 3 3 3 3 3 4 4 4 5 6 7 9 10 11 12 13 15 15 15 16 17 15 16 19 18 17 17 15
13 13 15 15 15 15 16 17 15 15 16 14 13 13 13 11 10 12 12 11 10 8 7 8 10 12 12 13 13 12 12 13 15 17 18 18 17 15 14 12 11 11 10 10 10 9 9 9 8 8 7 7 6 6 6 6 6 6 7 6 6 6 5 5 5 5 5 5 5 5 4 4 5 5 5 5 6 6 7 8 10 11 11 12 13 15 16 16 18 18 16 16 19 18 17 17 17
15 15 16 16 15 16 17 17 16 16 16 16 14 11 9 8 7 10 10 9 9 9 9 9 10 12 13 14 13 13 11 11 13 15 17 17 17 16 15 15 14 13 12 11 10 10 9 9 8 8 8 7 7 7 7 7 7 7 7 7 6 6 6 6 6 6 6 6 6 6 5 6 6 6 6 7 7 7 8 9 10 11 12 12 13 15 16 17 18 18 16 16 17 17 17 17 17
16 17 18 16 15 17 18 17 17 16 16 16 15 12 10 7 6 6 7 6 7 8 9 11 12 12 14 15 14 13 12 11 11 12 14 15 15 15 14 14 13 13 12 11 11 10 10 9 9 8 8 8 8 8 8 8 8 8 7 7 7 7 7 6 6 6 7 7 7 7 7 7 7 7 7 7 8 8 8 10 11 12 13 13 14 15 16 16 16 16 15 16 17 16 16 17 18
18 19 19 17 17 17 18 18 18 16 15 14 14 13 11 9 7 5 6 6 5 6 7 10 13 13 15 17 16 14 13 11 11 10 11 12 13 13 13 13 13 13 12 11 11 10 10 10 9 9 8 8 9 9 9 8 8 8 8 7 7 8 8 7 7 7 8 8 8 8 8 9 8 8 8 8 9 9 9 10 11 13 14 15 15 15 16 15 15 16 17 17 17 15 15 17 18
18 20 19 19 18 18 18 19 19 17 16 14 13 13 12 11 9 7 6 7 6 6 7 9 11 13 15 18 18 16 14 12 11 10 10 11 12 12 13 13 12 12 12 11 10 10 10 10 10 9 8 8 8 8 8 8 8 8 8 8 8 8 8 8 8 9 9 9 10 10 10 10 9 9 9 9 10 11 11 11 12 13 14 15 15 15 16 15 15 17 19 19 18 16 16 16 17
17 19 19 19 19 18 18 19 19 19 18 16 14 13 13 12 11 10 8 8 8 6 7 8 9 10 12 16 17 15 13 12 11 10 10 10 10 11 11 11 11 11 11 11 10 10 10 10 10 9 8 7 7 7 7 8 8 8 8 8 9 9 10 10 10 10 10 11 11 11 11 11 11 10 10 11 11 12 13 13 13 13 14 14 15 16 16 16 15 17 20 21 19 17 17 17 17
16 18 18 19 19 19 19 18 19 19 19 18 16 16 15 15 14 13 11 9 9 8 8 7 7 9 10 13 15 14 12 11 10 10 10 9 9 9 10 10 10 11 11 11 11 10 10 10 9 9 9 8 8 8 7 8 8 9 9 9 10 11 11 11 12 12 12 12 12 12 12 12 12 12 12 12 13 13 14 14 14 14 15 15 15 16 17 16 15 16 19 21 19 18 18 19 19
14 15 16 18 19 19 19 19 19 19 19 19 18 17 17 17 16 15 14 12 9 8 7 7 7 9 11 12 14 14 12 11 11 10 8 7 7 7 8 9 9 9 10 11 11 11 11 10 10 10 10 10 9 8 8 9 9 10 10 11 11 12 12 12 13 13 13 14 14 13 13 13 14 14 14 14 15 15 15 15 16 16 16 17 17 17 17 17 16 16 18 20 20 19 19 20 21
12 14 15 16 17 18 19 19 19 19 19 19 19 18 18 18 18 17 16 15 13 11 9 7 5 6 9 11 13 14 14 13 11 9 7 7 6 6 7 8 9 10 10 11 11 12 12 12 12 12 11 11 10 10 10 10 10 11 11 11 12 13 13 13 13 13 14 15 15 15 15 15 15 16 16 16 17 17 17 17 17 17 18 18 19 19 18 17 16 16 17 18 20 20 19 20 20
11 12 14 15 17 18 19 18 18 18 18 19 18 17 18 18 18 17 17 15 14 13 11 9 6 5 6 8 11 13 14 14 12 9 8 8 7 7 8 9 10 11 12 12 12 13 13 14 14 14 13 13 12 12 11 12 12 12 11 11 13 13 13 13 14 14 15 16 16 17 17 16 17 17 18 18 18 19 19 19 19 19 19 20 21 21 21 19 17 17 17 18 19 19 19 19 19
10 12 14 15 17 18 19 19 19 18 18 18 17 17 18 17 17 17 16 15 14 13 11 10 8 6 5 7 9 11 12 12 11 10 10 9 9 10 10 11 12 13 13 13 13 14 15 16 16 16 16 15 13 13 13 13 13 13 12 13 14 14 14 14 15 16 16 17 18 19 18 18 18 18 19 19 19 20 21 21 21 20 20 22 23 22 22 21 19 18 18 19 19 19 18 18 19
9 11 13 15 16 18 19 19 19 18 18 18 19 20 18 17 17 15 14 14 13 12 10 9 8 6 5 5 6 8 9 9 9 9 10 11 11 12 13 13 14 14 13 13 14 16 17 17 17 17 16 14 13 13 13 13 14 14 14 14 15 16 17 17 17 18 19 20 21 21 21 20 20 20 20 21 21 21 21 22 22 21 21 22 23 23 23 21 19 18 18 19 20 19 19 18 19
8 11 13 14 15 16 16 17 18 17 18 18 19 20 20 19 18 14 12 12 11 11 10 9 8 6 5 2 2 4 6 8 10 11 11 11 12 13 14 15 15 15 14 13 14 16 16 16 16 15 15 14 14 13 14 14 15 15 15 16 17 18 19 20 20 21 21 22 22 23 23 23 22 22 22 21 21 20 20 20 20 21 21 23 24 23 23 22 20 19 19 20 21 20 19 19 19
7 10 12 13 13 13 14 15 16 16 16 17 17 18 19 20 19 15 12 10 10 10 10 9 9 7 6 4 2 1 3 6 9 11 11 12 13 14 15 15 16 15 14 14 14 15 15 15 15 15 14 14 14 14 15 15 16 17 17 18 19 20 21 21 22 22 22 22 23 23 24 24 23 23 22 21 20 19 20 20 20 20 21 23 24 23 23 21 20 20 20 21 21 20 19 19 18
8 10 11 12 11 11 12 12 13 14 14 14 15 17 18 19 18 15 13 10 9 9 10 10 9 9 8 6 5 4 4 4 6 9 11 12 13 14 15 15 16 16 15 15 16 15 15 15 15 14 14 15 15 15 16 16 17 18 20 20 21 21 22 23 22 22 21 21 22 23 23 23 23 22 21 20 19 19 20 20 20 21 21 23 24 24 22 21 21 21 21 20 20 18 17 17 16
9 10 10 11 10 11 11 10 10 11 12 12 13 14 16 18 18 16 13 12 11 10 10 10 10 10 10 9 7 5 5 6 6 7 9 11 12 13 14 14 15 16 17 17 16 16 16 15 15 15 15 15 16 16 17 18 18 19 20 20 21 22 23 23 22 22 22 21 22 22 23 23 23 22 21 20 19 19 19 20 20 21 22 23 24 24 23 22 22 21 20 19 17 16 16 15 13
9 10 10 10 9 10 10 10 9 9 10 11 12 12 14 16 18 17 15 13 12 11 11 11 12 12 11 10 8 7 6 7 7 8 8 9 9 10 11 12 13 14 16 17 17 17 17 16 16 16 16 16 17 18 19 19 19 19 20 20 21 22 22 22 22 22 22 22 22 23 23 23 23 22 20 20 20 20 20 19 18 19 20 22 22 23 22 21 20 21 20 17 14 15 15 13 12
10 9 8 8 7 8 10 10 9 9 9 10 11 11 12 14 17 18 16 14 13 12 12 12 12 12 12 10 9 7 7 7 8 8 8 8 7 7 8 9 10 12 14 16 16 16 17 17 17 17 16 17 18 19 19 19 20 20 20 20 21 22 22 21 22 23 23 24 24 24 25 24 24 22 21 22 22 21 20 19 18 18 20 21 20 21 21 20 20 20 19 15 13 14 13 11 10
10 9 7 6 4 5 8 8 8 9 9 9 10 10 11 12 15 16 16 16 15 13 12 12 13 13 12 11 8 7 6 7 7 7 7 7 7 7 6 6 8 11 12 14 14 15 16 17 18 18 17 18 18 18 18 19 20 20 20 21 21 22 22 22 23 24 25 25 25 26 27 26 25 23 23 24 24 23 21 20 20 20 22 23 22 23 23 23 22 19 16 14 14 13 11 10 9
10 10 6 3 2 3 5 7 7 8 8 8 7 8 10 12 13 15 16 17 16 14 13 13 14 14 13 11 9 7 6 5 5 5 6 7 8 8 6 5 7 9 11 12 13 14 14 15 16 17 18 18 18 17 17 19 20 20 20 21 22 22 23 24 25 25 26 26 27 28 28 27 25 24 26 27 26 24 23 23 24 25 26 25 24 23 22 21 19 15 13 14 16 13 9 8 8
10 10 6 3 5 3 1 5 5 5 7 7 5 5 9 12 13 13 16 17 17 15 13 14 14 14 14 13 9 7 6 3 2 4 6 7 9 8 6 6 7 7 7 9 11 12 12 13 14 15 16 17 16 16 17 18 19 20 21 22 22 23 24 24 25 26 25 26 27 28 28 27 25 24 26 27 26 25 25 26 26 25 23 21 19 17 15 14 12 11 12 15 16 13 8 6 8
10 10 7 5 5 3 1 4 4 3 5 5 6 7 9 11 12 14 16 17 17 16 15 15 15 15 15 13 10 7 6 5 3 2 3 4 6 5 5 7 7 6 7 7 6 8 9 9 10 11 12 12 13 14 15 16 17 18 19 19 20 20 21 21 22 23 23 24 25 26 28 28 26 25 25 25 26 27 26 25 24 21 17 14 13 11 11 10 9 9 11 12 13 9 5 6 8
9 9 8 5 4 3 2 5 4 3 4 5 8 8 8 10 13 15 17 17 16 16 16 16 16 16 15 13 11 8 8 8 8 6 6 3 2 2 3 4 4 5 6 5 3 3 4 5 6 6 7 8 9 10 11 11 11 12 12 14 14 15 16 17 18 20 21 22 22 24 27 28 27 27 27 25 25 27 25 22 20 17 14 11 9 9 10 10 9 8 7 9 8 6 5 8 9
7 8 8 6 4 2 3 5 4 2 3 4 7 6 5 9 14 17 18 16 15 16 17 17 16 15 15 13 11 9 9 10 11 11 10 9 7 6 4 3 3 3 3 2 2 2 1 1 1 2 3 4 6 7 8 8 9 10 11 11 12 13 14 16 17 18 19 20 20 22 23 25 27 29 30 26 25 27 24 17 14 13 11 10 9 10 9 10 9 7 7 8 7 6 8 9 10
9 9 6 5 4 2 5 5 5 3 2 3 5 6 5 7 12 16 16 15 15 16 16 16 16 15 14 12 11 10 11 12 13 13 13 12 11 11 10 8 7 6 5 5 5 5 4 3 2 2 3 4 5 6 7 8 9 10 11 11 12 13 13 15 16 15 16 17 16 16 15 16 22 23 25 23 19 18 14 9 9 10 10 10 9 9 9 9 9 7 8 8 7 7 9 10 12
10 8 4 4 4 3 7 7 6 5 4 3 4 6 5 6 11 14 15 15 14 14 15 15 15 14 12 11 11 11 11 12 13 13 13 13 12 13 12 11 9 7 6 6 6 5 5 4 3 3 3 4 4 5 6 7 8 8 9 10 11 12 13 13 12 12 14 14 13 12 11 13 16 11 7 8 7 7 5 5 8 9 9 9 8 9 9 9 9 7 7 8 8 10 11 12 13
10 6 5 5 4 6 8 6 6 6 3 1 3 6 4 4 9 13 15 16 13 12 13 14 14 13 11 10 10 11 11 11 12 12 12 12 12 12 12 11 10 8 7 7 6 5 4 4 4 4 4 3 3 4 5 6 7 8 9 10 12 13 13 13 12 12 13 13 12 11 11 12 11 5 10 9 5 6 6 6 8 9 9 9 8 8 9 9 8 8 8 8 10 12 13 14 14
10 5 5 5 4 8 9 7 7 5 1 1 3 6 5 5 9 12 15 14 12 11 12 13 14 12 10 10 10 11 11 11 11 11 11 12 12 12 11 10 9 8 7 6 6 5 4 4 4 4 4 3 4 5 6 7 8 9 10 12 13 13 13 13 13 13 14 13 12 12 12 12 10 8 12 11 6 6 6 6 8 9 9 9 9 9 9 9 9 10 10 11 12 13 14 15 16
8 6 7 5 4 7 7 6 5 3 2 1 2 5 6 5 8 12 13 13 12 11 11 12 12 11 9 9 9 10 10 10 10 10 10 10 10 10 10 9 8 7 6 5 5 4 4 4 4 4 4 4 5 6 7 8 9 10 11 12 12 12 13 13 13 13 13 13 13 13 12 12 11 11 11 9 7 7 7 7 8 9 10 11 11 11 11 11 12 12 13 14 15 16 17 17 18
8 8 10 5 4 5 5 5 3 1 3 2 1 3 5 4 7 11 11 13 13 11 10 11 11 11 9 9 9 9 10 9 9 9 8 8 8 8 8 7 7 6 5 4 4 4 3 3 3 4 4 5 6 7 7 8 9 10 11 11 11 12 13 13 13 13 13 13 13 13 12 12 12 11 10 9 9 8 8 9 10 11 12 12 13 13 13 14 14 15 16 16 17 18 18 19 19
12 11 10 6 5 5 4 5 3 2 3 1 1 3 4 6 8 11 10 12 12 10 10 10 10 11 10 10 11 11 11 10 10 9 8 8 7 6 6 5 5 4 4 3 3 2 2 2 2 3 4 5 6 6 7 9 10 11 11 12 12 13 13 13 13 13 13 14 13 13 13 12 12 11 10 10 9 9 9 10 11 12 13 13 14 14 15 15 15 16 16 17 17 18 18 19 19
15 14 11 7 6 7 5 5 3 2 2 1 3 3 3 5 9 11 10 11 10 8 9 9 10 12 11 12 12 12 13 12 12 12 11 10 8 7 7 5 5 4 3 3 2 1 1 1 2 3 3 4 5 7 8 9 10 10 11 12 12 13 13 13 13 13 14 14 14 14 14 13 13 12 12 12 11 11 11 11 11 12 13 14 14 14 14 15 15 15 16 16 17 18 18 19 20
14 16 12 8 10 11 8 7 7 4 2 1 2 2 1 2 8 11 11 10 8 7 7 8 10 11 11 13 13 14 14 14 14 13 12 12 11 10 9 8 7 6 5 5 4 4 4 4 4 4 5 6 6 7 8 8 8 9 10 11 11 12 12 13 13 14 14 14 14 14 14 14 14 13 13 12 12 11 11 11 12 12 13 14 14 14 14 14 15 15 16 17 18 19 20 21 21
13 13 12 13 14 13 8 6 7 4 2 4 1 1 3 2 6 10 12 10 7 6 7 7 8 9 10 11 12 13 13 13 13 13 13 13 12 11 11 10 9 8 7 6 5 5 5 5 5 5 5 6 6 6 7 7 8 8 9 10 10 11 11 12 13 13 13 13 14 14 13 13 13 13 13 12 12 12 12 12 12 13 13 14 14 15 15 15 16 16 17 18 18 19 19 20 20
13 10 15 17 12 12 10 6 6 5 3 4 2 0 3 4 4 7 9 8 8 8 7 6 4 5 6 7 9 10 10 10 10 11 12 13 13 13 12 11 10 10 9 8 7 6 6 5 5 5 5 5 6 6 7 8 8 8 9 10 10 11 11 12 12 13 13 12 13 13 13 13 13 13 13 13 13 13 13 13 14 14 14 15 15 15 15 15 16 16 16 17 17 17 17 18 19
17 16 18 14 9 11 12 8 6 5 4 5 4 3 1 1 3 6 7 9 10 8 7 7 5 4 4 5 7 9 10 11 11 11 12 13 15 15 14 13 12 12 12 10 9 8 7 6 6 6 6 7 7 8 8 8 8 9 9 10 11 11 12 12 13 13 13 13 13 13 13 13 13 13 14 13 13 13 13 14 14 14 15 15 14 14 14 15 15 15 16 16 17 17 18 19 19
17 17 17 15 15 14 13 11 10 6 5 6 4 2 2 3 5 8 10 11 12 9 7 7 6 6 6 7 8 10 11 13 13 13 13 14 16 17 16 14 14 14 14 12 10 9 7 6 6 6 7 8 8 9 9 9 9 9 10 10 11 11 12 12 13 13 13 13 14 14 15 15 15 15 14 14 14 14 14 14 14 14 14 13 13 13 14 15 15 16 17 18 19 19 19 20 20
12 13 14 17 18 16 14 12 11 8 7 6 4 3 3 4 7 6 8 10 12 11 9 8 7 8 8 8 9 11 13 14 15 15 15 15 16 17 16 16 16 16 16 14 11 8 7 6 6 6 7 7 8 9 9 9 10 10 10 11 11 11 12 12 12 13 13 14 15 15 16 16 15 14 14 14 14 15 15 15 14 13 13 13 13 14 15 16 17 18 18 19 19 19 20 20 20
12 11 12 16 18 16 13 10 11 12 10 7 5 4 2 5 6 4 7 9 10 10 9 9 9 9 9 11 12 13 14 15 15 16 16 16 17 17 16 17 17 17 18 16 11 7 6 5 5 5 6 7 8 8 9 10 10 11 11 11 11 11 12 13 13 14 14 15 16 16 15 14 14 13 14 14 15 15 14 13 13 12 13 13 14 15 16 17 17 18 19 19 20 21 21 22 22
Wind_Direction
315 341 356 12 37 42 49 85 127 128 125 139 157 169 175 176 178 176 169 166 160 152 147 144 138 138 138 137 144 147 143 144 146 140 141 140 135 133 126 116 110 107 106 104 105 108 109 114 116 119 121 120 121 122 122 122 124 126 129 130 129 132 136 134 130 131 133 135 136 135 135 135 138 142 142 138 125 110 104 103 104 105 102 95 309 293 298 299 296 295 301 303 301 300 299 297 295
287 352 21 32 46 53 62 82 112 128 139 172 188 182 183 184 185 179 175 173 164 155 151 149 142 137 137 137 142 148 145 146 148 146 147 141 136 136 130 121 114 110 108 105 105 107 107 110 113 118 122 124 127 128 129 130 131 132 132 133 135 140 141 136 135 138 140 143 142 139 139 141 142 141 132 121 109 100 98 94 91 93 93 97 93 308 304 306 311 312 311 309 308 308 307 307 307
7 36 42 46 53 63 63 73 114 138 156 187 203 197 198 194 191 182 178 176 166 159 155 152 144 138 140 139 141 147 146 145 145 144 145 140 136 138 133 126 118 113 110 107 106 106 106 108 110 116 122 126 130 132 133 134 135 135 137 139 141 144 142 138 142 143 142 145 144 142 142 142 138 128 119 109 101 98 95 90 88 91 99 110 106 349 319 326 333 327 316 311 314 316 315 313 314
91 65 54 50 56 75 70 74 112 153 173 192 202 197 204 194 190 183 179 176 170 167 159 152 146 143 145 142 141 146 151 151 149 147 147 143 139 140 136 129 123 117 112 109 108 106 106 107 110 114 118 122 128 133 135 136 136 138 141 143 144 144 143 142 145 144 142 146 146 144 140 136 129 122 116 108 102 95 87 83 86 95 108 112 71 3 351 356 348 332 321 319 322 323 325 323 322
118 72 50 48 60 75 72 80 100 202 199 202 204 196 189 183 184 182 179 175 173 169 159 154 151 148 148 145 144 149 155 156 153 150 149 148 143 142 140 134 128 122 115 112 111 109 106 106 109 112 115 119 126 132 136 138 138 141 144 145 145 144 144 143 143 142 143 145 144 139 134 131 127 123 116 105 98 90 85 84 91 104 113 105 70 6 12 6 345 327 319 320 321 325 327 327 326
116 60 46 48 55 60 57 66 52 282 228 216 207 200 186 177 181 182 179 176 175 170 162 158 155 156 153 149 150 151 153 155 157 153 152 152 148 146 144 140 133 126 120 115 114 114 112 109 108 112 115 119 125 132 138 141 141 144 148 148 147 147 145 144 143 142 141 141 137 134 133 132 125 117 108 100 97 98 103 105 114 122 119 124 94 2 7 348 326 317 318 318 317 323 322 320 320
62 19 35 45 52 54 45 52 15 294 249 229 206 201 195 185 183 182 180 178 176 170 165 161 160 162 155 152 155 155 154 158 161 158 157 156 155 152 147 145 139 131 124 119 118 115 115 112 109 111 114 120 126 134 141 145 149 152 154 153 153 153 152 149 147 144 141 138 136 136 134 126 115 108 104 106 113 121 129 134 144 141 120 93 350 345 339 327 319 316 321 317 314 319 314 310 313
12 4 20 31 43 45 39 40 5 295 268 247 208 202 199 195 187 184 182 179 174 169 166 164 167 165 156 152 156 160 159 161 161 161 163 160 161 161 153 149 145 138 129 123 121 117 116 114 109 109 111 118 128 139 149 155 160 161 161 160 158 156 153 151 148 144 140 137 135 132 125 115 109 111 113 124 134 143 150 156 159 134 54 353 333 327 327 324 322 320 317 307 306 311 305 302 311
354 356 6 18 30 32 32 22 2 303 286 271 230 214 200 200 193 188 184 179 173 168 167 168 169 165 160 152 156 164 161 160 161 160 167 165 164 173 163 152 151 146 138 129 125 124 120 118 115 110 108 112 124 138 152 163 169 168 166 164 160 155 153 152 147 141 138 137 135 130 125 122 120 121 127 137 148 159 169 181 168 73 2 329 319 319 321 315 313 316 309 303 307 307 301 301 310
5 3 2 12 22 23 23 10 356 313 294 275 258 232 205 205 191 186 184 177 171 169 168 168 167 166 163 152 156 166 161 160 160 158 166 169 160 178 180 156 154 153 147 139 132 130 127 124 120 116 114 114 118 126 138 156 169 174 172 168 164 161 159 154 146 142 143 143 141 144 142 136 136 140 144 151 158 164 175 188 144 7 331 308 308 311 308 302 302 307 305 303 304 299 298 303 307
19 15 5 9 18 21 16 7 352 318 297 280 268 244 223 203 180 179 181 175 170 171 169 164 166 165 161 153 157 163 160 158 158 156 163 171 158 173 191 163 157 157 152 147 140 137 134 132 126 121 121 122 122 122 124 131 150 168 175 173 170 169 166 158 152 153 156 156 157 160 156 150 152 156 154 152 155 164 173 182 350 332 304 299 306 305 304 302 298 302 304 303 303 298 296 299 303
17 13 10 11 12 17 16 8 350 319 309 302 273 259 234 189 172 175 178 173 169 170 166 162 167 165 159 154 157 159 159 157 153 153 158 170 160 169 189 168 163 164 156 150 146 145 142 141 135 126 124 127 128 126 122 122 132 150 164 171 173 172 168 166 163 165 167 168 167 165 162 158 160 156 146 136 141 153 159 334 330 306 295 300 311 309 308 307 306 312 315 314 313 309 304 301 301
13 10 13 15 9 12 16 12 356 332 332 331 308 281 204 172 166 173 174 172 169 168 165 164 167 164 157 152 157 160 158 155 152 150 153 165 163 169 183 169 167 172 163 153 151 152 151 149 142 132 126 127 129 128 123 120 125 135 150 159 167 169 171 174 169 173 176 172 169 168 164 160 150 135 130 132 126 101 45 338 313 301 301 306 310 307 309 313 316 318 318 318 316 316 316 312 309
13 14 12 15 16 13 14 15 10 353 355 357 358 281 183 166 161 168 170 170 168 167 167 167 165 162 156 151 158 163 161 155 153 152 150 157 164 171 177 166 166 178 171 159 157 159 158 156 152 143 136 135 134 136 130 125 124 132 150 157 169 176 178 180 176 178 179 177 176 172 166 149 132 119 120 127 111 80 357 307 302 303 306 309 310 311 317 320 322 320 318 318 315 316 320 318 316
18 21 12 19 27 21 19 20 22 12 14 27 37 80 165 163 159 162 163 165 164 166 172 167 159 157 152 151 159 167 169 161 157 156 149 150 163 171 170 162 164 177 176 168 162 159 161 160 161 159 154 157 154 154 149 142 143 152 175 180 182 186 187 185 181 182 183 182 180 173 159 139 126 116 113 104 52 317 295 292 292 298 305 310 313 319 320 317 322 328 323 320 317 317 320 319 317
26 22 18 32 39 38 32 29 39 35 34 55 58 87 154 160 156 155 154 157 156 161 169 162 156 154 150 153 166 172 176 173 166 159 149 149 161 166 162 158 160 171 175 174 167 160 160 160 165 168 166 171 171 171 167 160 161 169 188 198 194 191 190 187 185 186 187 186 178 174 162 148 140 127 127 334 307 303 302 299 299 302 309 310 313 319 318 317 324 331 326 320 321 322 321 320 316
33 22 33 48 49 52 49 47 54 54 62 77 79 101 148 155 152 147 143 148 149 157 164 164 163 157 152 155 170 182 183 181 174 162 152 152 160 162 159 158 159 167 175 176 172 164 161 160 166 172 172 177 180 182 181 170 167 178 191 200 198 194 193 190 191 186 185 193 187 183 181 181 202 225 281 291 292 297 301 303 307 311 315 314 316 318 316 319 324 329 330 326 326 326 321 319 317
36 30 49 59 55 61 59 57 59 62 76 87 94 108 135 146 146 142 140 145 148 158 166 169 166 155 154 156 167 190 187 180 176 166 159 159 162 163 161 163 163 169 177 181 178 170 166 166 169 174 174 180 184 189 193 180 170 178 189 192 191 194 197 193 193 187 187 209 214 207 214 241 261 274 283 292 296 304 308 310 313 316 318 318 320 320 317 320 325 330 335 333 331 331 325 323 326
42 42 57 63 61 66 65 63 61 66 80 93 103 114 128 135 140 141 141 144 145 154 163 168 163 159 164 161 168 191 188 177 175 172 169 168 167 167 167 170 172 173 180 186 184 177 173 174 176 177 176 182 189 194 201 192 177 176 177 180 185 190 198 195 195 198 201 219 236 240 246 260 273 285 292 299 306 311 315 316 315 315 317 320 323 321 319 322 327 333 335 334 332 332 328 326 329
53 54 62 65 65 68 68 69 66 68 79 92 105 119 128 130 142 148 144 139 142 152 161 163 164 172 179 171 174 189 187 176 174 177 178 176 174 174 174 177 179 181 183 189 189 184 181 181 181 182 181 183 190 199 203 197 184 176 171 176 182 186 196 203 207 214 220 230 245 253 260 271 282 291 297 301 307 311 314 315 312 312 316 322 324 321 319 319 324 330 331 332 332 330 327 325 327
62 62 67 68 69 70 71 73 72 71 76 85 96 108 120 125 139 153 149 138 144 156 162 166 172 185 190 182 179 186 186 175 172 178 182 183 182 181 182 184 183 183 183 187 192 189 185 185 184 183 183 183 188 197 198 189 181 177 176 180 186 191 198 211 223 230 236 242 251 261 269 278 285 290 296 299 302 307 311 313 312 313 317 322 323 319 316 316 320 325 327 329 331 329 326 325 326
69 68 70 70 69 72 73 73 74 75 76 82 88 93 102 109 115 142 153 148 155 162 168 176 180 190 196 189 184 186 184 175 170 174 179 183 185 187 189 190 187 183 181 184 189 190 186 185 182 179 181 181 183 187 188 183 180 182 186 191 196 200 206 215 228 239 247 253 259 266 272 277 282 286 291 295 299 305 310 313 315 316 318 322 321 317 315 315 318 322 324 327 329 329 325 324 323
75 74 73 71 70 73 74 73 72 72 74 78 84 89 93 99 105 123 147 158 159 157 169 181 187 197 201 192 186 187 182 173 169 167 171 177 181 184 187 190 190 183 180 182 185 186 184 181 175 171 174 178 180 181 183 184 186 192 199 205 210 213 218 222 230 241 251 260 265 270 273 276 278 282 287 294 299 304 307 310 313 315 317 319 318 315 315 318 320 322 324 325 327 326 324 323 322
81 79 77 74 73 74 75 75 73 70 71 74 78 84 87 91 99 112 138 160 157 152 162 174 189 205 209 199 189 185 180 174 170 166 167 173 175 179 183 186 189 184 179 179 181 182 180 177 172 168 173 178 184 188 190 194 199 203 209 217 225 229 233 236 240 246 254 261 267 271 273 276 279 283 289 295 299 301 303 305 307 311 313 314 314 313 315 320 323 325 327 326 326 324 322 321 318
85 83 80 78 76 75 76 76 75 73 71 72 75 76 76 78 83 94 116 147 157 156 164 169 181 197 207 206 197 185 178 176 174 171 171 173 174 176 180 182 186 186 181 180 182 184 183 182 178 175 181 188 197 205 207 209 212 216 220 226 234 240 244 247 251 253 257 261 264 268 271 275 280 284 289 294 296 298 299 301 304 306 308 310 311 312 313 318 323 326 329 326 324 322 319 317 314
88 87 84 81 78 76 76 76 76 75 72 72 73 72 72 71 73 79 90 117 141 145 151 156 163 179 191 202 199 185 179 182 182 182 179 177 177 177 181 182 186 190 187 187 188 190 191 191 189 188 193 200 208 217 222 225 228 231 234 237 242 247 251 255 258 260 263 265 267 269 273 277 281 286 289 292 294 296 298 300 302 304 305 307 310 310 310 314 319 325 328 325 320 316 313 313 312
93 91 86 83 80 77 77 76 76 76 75 73 71 71 71 71 72 73 77 88 105 114 123 131 142 169 178 185 190 184 184 192 192 188 184 182 183 185 191 191 192 197 198 200 199 198 199 201 202 201 203 208 213 220 227 234 239 242 245 248 251 255 259 262 265 268 270 271 274 277 279 282 286 289 291 293 294 296 298 299 300 301 304 306 306 306 306 309 313 320 327 324 318 315 314 312 311
96 90 87 84 80 78 78 77 78 78 78 77 74 72 71 71 72 72 74 78 83 86 91 105 129 165 175 176 181 185 192 199 199 194 191 194 196 196 203 204 201 205 211 214 213 210 207 209 211 211 212 215 218 222 229 236 241 246 251 255 258 261 265 269 273 276 277 278 281 283 284 286 288 290 292 294 296 297 298 299 299 301 303 305 305 304 303 305 308 313 321 321 318 317 316 312 310
95 89 86 82 78 78 79 78 79 80 80 80 78 75 72 70 69 69 70 72 76 80 84 93 112 145 180 185 186 193 198 202 204 203 206 209 210 211 211 209 208 210 215 219 223 222 218 216 217 219 220 221 223 226 231 237 243 248 253 258 261 265 268 272 276 278 280 281 283 284 285 287 288 289 291 293 295 298 298 299 300 302 305 305 305 305 303 305 309 310 314 318 318 319 317 313 312
96 89 84 79 78 78 80 80 79 80 80 80 79 75 71 70 68 66 66 67 69 74 80 88 101 120 162 191 200 208 208 207 209 214 222 223 223 224 220 213 212 215 217 219 225 228 227 224 223 225 225 226 229 232 236 241 246 250 253 256 261 265 268 269 272 274 276 278 280 282 284 286 288 288 289 290 292 295 296 298 300 302 305 304 303 302 302 306 310 310 312 316 318 319 316 312 311
97 88 82 76 76 80 83 83 80 80 79 78 75 72 69 66 65 64 65 65 62 64 69 75 83 96 124 168 198 215 219 217 218 225 232 233 231 231 228 222 219 220 220 222 228 233 235 234 235 235 235 236 239 242 246 249 252 255 257 260 263 266 268 269 271 273 275 277 279 282 285 286 286 286 286 286 288 291 294 296 298 301 302 300 298 299 301 304 308 309 309 311 313 316 313 309 308
94 89 85 79 78 85 88 87 85 83 79 76 72 69 65 60 59 59 62 63 60 57 55 55 55 60 75 96 167 214 227 228 227 231 235 234 232 232 230 228 227 228 226 228 232 237 241 245 247 248 247 246 247 251 254 257 259 262 264 265 266 268 269 271 273 276 279 281 284 285 286 286 285 285 285 287 289 291 293 294 295 297 297 295 295 296 298 301 305 307 307 306 306 309 308 306 305
100 96 94 86 82 87 91 90 89 87 80 76 73 69 61 56 54 55 59 61 58 54 49 47 43 39 37 29 14 314 258 241 238 242 246 245 243 243 239 234 233 234 233 234 237 241 244 247 251 255 256 255 255 257 260 263 265 267 268 268 269 271 273 275 277 280 283 284 286 286 286 287 287 288 288 290 292 293 293 294 294 293 291 291 293 295 296 300 306 309 307 304 302 304 305 303 303
128 114 104 93 85 82 87 90 90 90 83 75 71 66 60 54 50 51 56 59 54 49 46 43 40 35 25 13 3 347 326 287 261 255 256 256 256 255 254 249 243 240 239 238 239 242 244 248 252 255 258 260 261 265 267 270 271 272 273 273 274 276 278 280 282 284 286 286 286 287 288 289 289 290 292 294 296 296 294 292 290 289 289 290 292 294 297 301 306 309 310 307 303 302 301 301 302
145 130 119 107 95 83 83 85 85 87 83 74 66 61 57 54 51 50 53 55 49 41 37 35 32 30 24 14 5 350 334 323 308 283 268 264 262 259 258 258 254 251 249 246 244 244 246 249 253 256 260 263 265 269 272 275 278 279 278 277 276 277 279 282 285 287 288 287 287 287 287 287 287 289 292 297 299 296 292 289 289 290 292 294 293 292 293 297 302 306 308 307 300 296 297 299 300
162 147 131 119 108 93 91 89 84 78 72 66 59 55 54 53 51 51 51 50 44 35 30 28 26 23 20 14 4 352 333 320 317 304 287 273 268 264 260 258 258 260 261 259 257 254 253 252 254 257 259 262 266 269 273 276 279 280 279 278 277 277 279 283 285 286 286 286 285 284 283 284 286 288 295 299 297 293 292 291 292 295 300 302 300 294 289 292 298 300 303 301 291 291 296 295 294
174 162 145 132 124 110 102 97 91 81 65 54 48 45 49 52 51 49 47 44 38 32 27 22 22 19 16 14 5 353 331 311 303 295 287 279 272 267 257 249 249 255 260 263 264 264 264 261 258 259 260 262 266 270 273 274 275 275 276 276 275 275 278 281 282 283 284 284 285 286 286 286 287 291 297 296 293 292 295 297 296 298 304 306 305 299 292 293 296 296 297 295 287 288 291 288 290
182 176 157 133 136 131 114 104 95 84 67 49 40 35 40 47 50 48 44 39 33 28 26 21 19 18 15 15 12 359 338 318 305 287 278 281 284 280 265 245 238 242 248 254 258 261 263 261 261 264 267 269 271 273 273 272 270 270 271 271 272 274 277 279 280 282 283 284 285 286 286 287 289 292 291 287 285 286 292 300 301 300 302 303 303 301 297 296 296 293 291 289 285 283 278 277 285
191 177 146 120 183 168 126 111 100 88 72 51 37 33 36 37 41 46 43 36 31 27 25 24 20 17 16 17 18 11 1 341 311 291 282 285 291 288 273 252 240 239 244 246 247 249 250 254 258 262 264 266 270 272 271 269 268 269 270 272 274 276 278 280 281 281 281 281 281 281 283 286 288 287 282 279 280 282 287 296 298 297 297 299 303 303 299 297 296 293 289 284 280 275 263 267 282
195 183 147 162 203 212 136 105 101 94 75 50 24 34 41 34 30 38 42 35 30 28 26 25 23 20 18 18 20 19 20 25 338 306 298 292 295 293 274 257 257 260 269 266 251 243 240 244 250 254 257 262 266 269 269 270 272 273 275 276 277 279 280 282 284 283 282 280 279 280 283 285 283 279 276 276 279 281 287 293 297 300 297 297 306 311 309 307 305 299 287 280 278 272 255 263 281
193 202 181 176 206 227 172 118 115 98 72 37 12 15 17 28 31 31 36 32 27 29 28 26 25 23 21 18 20 25 29 41 44 7 331 303 293 287 268 265 278 296 308 301 263 237 234 239 248 255 261 265 268 271 274 277 279 281 282 283 284 285 287 290 292 292 291 288 286 285 283 280 278 277 275 277 280 281 285 291 300 309 306 303 311 317 320 319 317 309 293 286 286 278 258 268 277
187 212 204 193 221 230 169 143 120 33 23 20 27 18 340 4 37 34 30 29 25 26 25 24 25 26 24 19 20 29 37 47 56 60 57 38 348 290 264 276 298 317 318 315 281 248 248 256 261 265 268 271 276 282 287 292 299 304 305 303 300 298 298 300 301 303 303 301 299 292 284 280 278 275 274 278 280 280 283 286 295 308 309 309 315 316 319 316 315 319 305 295 292 280 273 276 277
185 216 210 203 227 237 209 168 128 1 352 19 31 41 343 353 32 35 28 28 25 23 21 22 25 26 26 24 27 39 48 53 58 62 62 58 55 62 62 46 47 36 13 16 23 21 24 338 287 282 286 294 302 310 316 325 335 336 333 328 322 316 311 309 310 311 312 315 313 304 296 286 278 272 268 270 277 278 278 279 288 303 309 310 315 317 316 311 313 320 303 290 278 273 281 282 281
194 212 208 213 231 226 221 190 147 153 102 37 4 41 29 1 30 36 28 27 27 24 21 22 25 27 29 32 40 51 58 58 58 58 59 58 58 63 68 67 66 62 56 54 52 49 50 49 39 12 339 331 331 336 340 344 347 347 345 344 340 335 329 323 323 324 324 327 328 325 323 309 298 287 270 267 279 283 274 276 294 303 306 308 316 319 315 310 311 307 291 283 271 273 282 283 284
212 214 216 242 244 203 204 190 153 137 88 23 346 35 37 1 27 35 26 26 29 26 23 24 26 28 32 41 53 62 65 62 58 58 58 57 58 62 66 68 67 64 59 58 60 57 49 42 33 24 8 350 341 342 349 354 356 357 357 359 360 355 351 346 344 346 344 343 343 342 349 337 324 329 318 288 301 316 306 312 313 307 310 319 326 324 318 317 314 303 287 278 273 276 279 281 284
224 223 240 255 232 195 195 185 154 133 92 49 12 26 30 353 17 32 26 24 30 26 23 25 27 28 36 49 63 71 71 68 62 61 61 60 61 63 66 69 69 67 63 58 60 58 48 41 32 26 17 356 345 349 358 5 2 1 2 6 10 8 7 6 1 360 359 358 356 349 355 346 321 347 29 17 352 343 341 337 327 320 325 332 331 323 321 320 315 306 295 286 281 281 281 283 286
226 223 249 267 233 196 189 186 159 127 51 86 40 13 29 7 5 27 27 22 25 23 23 26 26 29 39 55 70 75 76 74 70 68 68 67 66 67 68 69 69 67 63 58 56 54 46 40 34 32 24 3 355 357 0 3 357 356 360 3 8 8 8 9 6 4 4 5 7 4 4 357 330 334 7 11 4 356 352 342 331 326 328 327 322 320 318 312 306 301 298 293 291 290 290 291 292
227 223 239 262 251 206 188 192 159 115 303 151 67 7 32 17 7 27 26 20 20 17 24 26 25 30 40 58 71 77 79 78 76 74 72 71 71 72 73 73 73 72 68 64 59 55 47 39 35 31 25 9 2 2 359 358 353 354 360 2 3 4 3 4 4 4 3 3 7 7 7 5 354 354 0 359 359 356 345 336 327 320 319 316 316 316 311 306 303 302 301 300 300 301 300 300 300
236 234 237 235 241 215 192 214 194 178 242 183 99 357 21 5 28 37 20 20 20 15 28 31 30 33 39 54 65 70 74 74 74 73 69 68 68 69 73 76 79 79 79 75 67 62 53 41 29 18 13 8 3 0 355 352 351 353 357 357 358 1 359 357 357 358 358 359 0 360 0 360 354 354 353 349 349 343 334 330 322 316 315 313 313 312 308 307 307 306 307 306 306 306 305 305 303
238 236 236 222 218 214 211 228 216 217 215 138 343 354 13 350 31 44 21 21 22 18 36 42 43 45 45 54 61 65 67 67 67 65 62 61 59 60 64 68 74 77 80 80 80 78 67 50 29 10 4 1 356 351 348 349 350 351 354 354 357 359 357 354 354 356 355 355 355 354 353 351 347 345 344 340 337 333 330 325 317 314 313 310 310 309 309 310 310 310 310 310 310 309 308 306 303
229 221 217 214 208 198 207 225 208 218 218 73 357 4 30 4 32 42 31 28 21 24 49 57 56 57 57 59 62 65 64 61 59 56 53 51 47 47 47 46 48 44 40 37 27 18 5 2 3 355 352 351 347 346 346 348 350 352 356 358 360 359 356 354 355 355 354 352 351 350 348 346 343 341 338 336 334 333 329 323 317 314 312 312 312 312 313 313 313 314 314 313 313 312 310 307 305
226 209 203 215 219 204 196 212 205 186 194 256 319 352 353 50 54 44 36 34 27 35 59 71 70 65 63 62 64 66 63 58 54 48 45 41 36 35 33 32 32 28 19 8 352 339 336 338 339 339 344 347 346 347 348 351 354 358 1 2 1 358 355 355 355 353 352 349 346 345 343 342 340 337 333 331 328 325 322 320 317 316 316 317 317 316 317 317 318 318 317 317 316 314 311 309 307
212 201 211 220 220 212 196 215 226 184 176 264 250 29 306 317 60 56 46 37 35 49 61 77 83 72 64 61 61 61 57 52 47 40 36 32 27 25 22 22 23 21 17 8 356 347 340 339 339 340 345 349 349 351 354 357 359 1 4 4 4 3 2 0 359 356 352 348 345 343 341 337 334 330 327 326 326 327 327 326 324 324 323 322 321 320 320 321 321 320 319 318 315 311 308 306 304
194 202 228 223 220 223 208 208 239 217 216 262 258 225 294 318 13 55 67 59 49 51 53 61 78 73 59 49 45 39 32 29 26 21 19 16 15 14 12 13 12 10 6 359 353 350 349 348 347 350 352 353 355 356 358 360 3 6 10 12 12 12 11 8 5 2 356 352 347 343 339 336 334 333 333 335 336 335 333 332 330 328 325 324 323 322 322 323 322 321 319 316 313 311 309 308 308
196 211 227 220 216 229 222 214 227 227 227 239 255 271 256 41 1 12 44 60 55 46 44 44 38 37 26 11 13 10 3 2 358 355 355 355 358 1 4 7 6 4 358 350 344 339 341 346 345 351 355 356 358 359 360 2 7 12 13 13 14 12 11 9 7 3 357 353 348 344 342 340 341 342 342 342 339 335 332 330 327 325 324 324 325 326 326 326 325 323 321 319 320 320 319 318 317
208 222 231 224 218 219 221 221 215 217 238 233 231 259 236 115 61 18 14 38 45 30 27 34 26 21 10 354 356 356 353 352 349 347 345 344 348 351 357 0 358 356 351 344 339 330 325 328 334 346 353 358 360 358 0 2 3 6 7 8 9 8 8 6 3 360 354 351 348 345 345 346 346 346 344 340 335 330 328 327 325 326 328 331 333 333 332 331 330 328 327 327 326 324 323 322 320
222 231 234 230 227 225 225 225 220 219 233 234 217 221 219 93 69 30 4 26 36 24 20 27 23 22 14 359 355 354 352 351 350 351 349 348 349 349 353 356 353 349 344 337 332 320 310 308 320 337 347 355 358 355 356 356 353 356 358 1 3 3 5 5 2 359 355 353 352 350 349 347 345 342 337 334 332 330 330 331 334 336 340 342 341 340 338 335 334 331 329 328 327 326 326 324 323
225 226 230 230 228 224 222 235 241 231 228 231 223 224 192 92 70 26 9 20 25 18 21 29 25 22 16 6 3 360 355 354 353 354 355 354 354 353 354 356 352 346 340 333 323 309 297 293 307 329 341 348 353 352 352 350 349 350 352 356 359 1 4 6 5 4 1 0 358 354 351 346 341 338 335 334 333 334 337 341 344 347 348 347 344 342 339 335 333 331 330 330 329 328 328 326 324